Tracking 25734 objects as of 26-May-2022
HD Live streaming from Space Station
objects crossing your sky now

SL-12 DEB

Track SL-12 DEB now!
10-day predictions


NORAD ID: 29449
Int'l Code: 1989-039CT
Perigee: 1,642.1 km
Apogee: 18,001.1 km
Inclination: 61.8 °
Period: 341.8 minutes
Semi major axis: 16192 km
RCS: 0.116 m2 (medium)
Launch date: May 31, 1989
Source: Commonwealth of Independent States (former USSR) (CIS)
Launch site: TYURATAM MISSILE AND SPACE COMPLEX (TTMTR)

Note: This is SATELLITE DEBRIS
aabbcc
Your satellite tracking list
Your tracking list is empty




NASA's NSSDC Master Catalog

Two Line Element Set (TLE):
1 29449U 89039CT  22137.77445392 -.00000020  00000-0  00000-0 0  9996
2 29449  61.7598 267.8972 5051358 117.0998  11.0505  4.21335480 36336
Source of the keplerian elements: AFSPC